Weather History for KCBF - October, 2013

Change the Weather History Date:

Sunday, October 20, 2013

  Actual Average (KOMA) Record (KOMA)
Temperature  
Mean Temperature 52 °F 52 °F  
Max Temperature 64 °F 63 °F 89 °F (1947)
Min Temperature 41 °F 40 °F 20 °F (1916)
Degree Days  
Heating Degree Days 12 14  
Month to date heating degree days 207  
Since 1 July heating degree days 310  
Cooling Degree Days 0 0  
Month to date cooling degree days 12  
Year to date cooling degree days 1109  
Growing Degree Days 2 (Base 50)    
Moisture  
Dew Point 39 °F    
Average Humidity 66    
Maximum Humidity 81    
Minimum Humidity 39    
Precipitation  
Precipitation 0.00 in 0.07 in 0.81 in (1949)
Month to date precipitation 1.45  
Year to date precipitation 27.24  
Snow  
Snow 0.00 in 0.00 in - ()
Month to date snowfall 0.1  
Since 1 July snowfall 0.1  
Snow Depth -    
Sea Level Pressure  
Sea Level Pressure 29.80 in    
Wind  
Wind Speed 7 mph (West)    
Max Wind Speed 16 mph    
Max Gust Speed 28 mph    
Visibility 10 miles    
Events      
T = Trace of Precipitation, MM = Missing Value Source: NWS Daily Summary

Daily Weather History Graph

Daily Weather History Graph

Search for Another Location

Airport or City:

Trip Planner

Search our weather history database for the weather conditions in past years. The results will help you decide how hot, cold, wet, or windy it might be!

Date:

Astronomy

Oct. 20, 2013 Rise Set
Actual Time 7:40 AM CDT 6:34 PM CDT
Civil Twilight 7:12 AM CDT 7:02 PM CDT
Nautical Twilight 6:40 AM CDT 7:34 PM CDT
Astronomical Twilight 6:08 AM CDT 8:06 PM CDT
Moon 7:42 PM CDT (10/20) 9:20 AM CDT (10/20)
Length of Visible Light 11h 49m
Length of Day
10h 53m
Full, 97% of the Moon is Illuminated
Oct 20
Full
Oct 26
Last Quarter
Nov 3
New
Nov 9
First Quarter
Nov 17
Full

Hourly Weather History & Observations

Time (CDT) Temp. Windchill Dew Point Humidity Pressure Visibility Wind Dir Wind Speed Gust Speed Precip Events Conditions
12:15 AM 44.6 °F 40.7 °F 39.2 °F 81% 29.80 in 10.0 mi SE 6.9 mph - N/A   Overcast
12:35 AM 42.8 °F 40.1 °F 37.4 °F 81% 29.80 in 10.0 mi SE 4.6 mph - N/A   Mostly Cloudy
12:55 AM 44.6 °F 41.4 °F 39.2 °F 81% 29.79 in 10.0 mi SSE 5.8 mph - N/A   Overcast
1:15 AM 44.6 °F 41.4 °F 39.2 °F 81% 29.79 in 10.0 mi SSE 5.8 mph - N/A   Overcast
1:35 AM 44.6 °F 42.2 °F 39.2 °F 81% 29.78 in 10.0 mi ESE 4.6 mph - N/A   Overcast
1:55 AM 44.6 °F 42.2 °F 39.2 °F 81% 29.77 in 10.0 mi SE 4.6 mph - N/A   Overcast
2:15 AM 44.6 °F 42.2 °F 39.2 °F 81% 29.77 in 10.0 mi SE 4.6 mph - N/A   Overcast
2:35 AM 44.6 °F 42.2 °F 39.2 °F 81% 29.76 in 10.0 mi SE 4.6 mph - N/A   Overcast
2:55 AM 44.6 °F 41.4 °F 39.2 °F 81% 29.76 in 10.0 mi SE 5.8 mph - N/A   Overcast
3:15 AM 44.6 °F 41.4 °F 39.2 °F 81% 29.75 in 10.0 mi SE 5.8 mph - N/A   Overcast
3:35 AM 44.6 °F 41.4 °F 39.2 °F 81% 29.74 in 10.0 mi SE 5.8 mph - N/A   Overcast
3:55 AM 44.6 °F 41.4 °F 39.2 °F 81% 29.73 in 10.0 mi SE 5.8 mph - N/A   Overcast
4:15 AM 44.6 °F 40.2 °F 39.2 °F 81% 29.73 in 10.0 mi SSE 8.1 mph - N/A   Overcast
4:35 AM 44.6 °F 40.2 °F 39.2 °F 81% 29.72 in 10.0 mi SSE 8.1 mph - N/A   Overcast
4:55 AM 44.6 °F 40.7 °F 39.2 °F 81% 29.71 in 10.0 mi SE 6.9 mph - N/A   Overcast
5:15 AM 44.6 °F 42.2 °F 39.2 °F 81% 29.72 in 10.0 mi SSE 4.6 mph - N/A   Overcast
5:35 AM 44.6 °F 41.4 °F 39.2 °F 81% 29.71 in 10.0 mi South 5.8 mph - N/A   Overcast
5:55 AM 46.4 °F 43.5 °F 39.2 °F 76% 29.71 in 10.0 mi South 5.8 mph - N/A   Overcast
6:15 AM 46.4 °F 43.5 °F 39.2 °F 76% 29.70 in 10.0 mi South 5.8 mph - N/A   Overcast
6:35 AM 44.6 °F 41.4 °F 39.2 °F 81% 29.70 in 10.0 mi South 5.8 mph - N/A   Overcast
6:55 AM 46.4 °F 42.4 °F 39.2 °F 76% 29.71 in 10.0 mi SW 8.1 mph - N/A   Overcast
7:15 AM 46.4 °F 41.5 °F 37.4 °F 71% 29.71 in 10.0 mi SW 10.4 mph - N/A   Overcast
7:35 AM 46.4 °F 41.5 °F 37.4 °F 71% 29.72 in 10.0 mi SW 10.4 mph - N/A   Overcast
7:55 AM 46.4 °F 42.9 °F 39.2 °F 76% 29.71 in 10.0 mi SW 6.9 mph - N/A   Overcast
8:15 AM 44.6 °F 40.7 °F 39.2 °F 81% 29.72 in 10.0 mi SW 6.9 mph - N/A   Scattered Clouds
8:35 AM 46.4 °F 42.9 °F 39.2 °F 76% 29.72 in 10.0 mi WSW 6.9 mph - N/A   Partly Cloudy
8:55 AM 46.4 °F 43.5 °F 39.2 °F 76% 29.73 in 10.0 mi SW 5.8 mph - N/A   Clear
9:15 AM 48.2 °F - 39.2 °F 71% 29.74 in 10.0 mi WSW 5.8 mph - N/A   Scattered Clouds
9:35 AM 48.2 °F - 39.2 °F 71% 29.74 in 10.0 mi WSW 6.9 mph - N/A   Partly Cloudy
9:55 AM 48.2 °F - 41.0 °F 76% 29.75 in 10.0 mi West 5.8 mph - N/A   Clear
10:15 AM 50.0 °F - 41.0 °F 71% 29.75 in 10.0 mi West 4.6 mph - N/A   Clear
10:35 AM 51.8 °F - 41.0 °F 67% 29.75 in 10.0 mi West 5.8 mph - N/A   Clear
10:55 AM 55.4 °F - 41.0 °F 58% 29.75 in 10.0 mi NW 5.8 mph 11.5 mph N/A   Clear
11:15 AM 57.2 °F - 41.0 °F 55% 29.76 in 10.0 mi WNW 9.2 mph 19.6 mph N/A   Clear
11:35 AM 59.0 °F - 42.8 °F 55% 29.77 in 10.0 mi WNW 9.2 mph - N/A   Clear
11:55 AM 59.0 °F - 41.0 °F 51% 29.77 in 10.0 mi Calm Calm - N/A   Clear
12:15 PM 59.0 °F - 42.8 °F 55% 29.77 in 10.0 mi NNW 6.9 mph 12.7 mph N/A   Partly Cloudy
12:35 PM 59.0 °F - 42.8 °F 55% 29.77 in 10.0 mi West 5.8 mph - N/A   Clear
12:55 PM 59.0 °F - 42.8 °F 55% 29.77 in 10.0 mi Variable 4.6 mph - N/A   Clear
1:15 PM 59.0 °F - 42.8 °F 55% 29.76 in 10.0 mi West 4.6 mph - N/A   Clear
1:35 PM 60.8 °F - 42.8 °F 52% 29.76 in 10.0 mi WNW 6.9 mph - N/A   Clear
1:55 PM 60.8 °F - 42.8 °F 52% 29.76 in 10.0 mi WNW 5.8 mph - N/A   Mostly Cloudy
2:15 PM 60.8 °F - 42.8 °F 52% 29.75 in 10.0 mi WNW 6.9 mph 16.1 mph N/A   Mostly Cloudy
2:35 PM 62.6 °F - 39.2 °F 42% 29.75 in 10.0 mi NW 11.5 mph 18.4 mph N/A   Mostly Cloudy
2:55 PM 62.6 °F - 39.2 °F 42% 29.75 in 10.0 mi WNW 12.7 mph - N/A   Mostly Cloudy
3:15 PM 64.4 °F - 41.0 °F 42% 29.76 in 10.0 mi WNW 12.7 mph - N/A   Partly Cloudy
3:35 PM 64.4 °F - 41.0 °F 42% 29.76 in 10.0 mi WNW 12.7 mph 23.0 mph N/A   Partly Cloudy
3:55 PM 64.4 °F - 39.2 °F 40% 29.77 in 10.0 mi WNW 10.4 mph 19.6 mph N/A   Scattered Clouds
4:15 PM 62.6 °F - 37.4 °F 39% 29.78 in 10.0 mi WNW 16.1 mph 27.6 mph N/A   Clear
4:35 PM 62.6 °F - 37.4 °F 39% 29.79 in 10.0 mi WNW 10.4 mph 24.2 mph N/A   Partly Cloudy
4:55 PM 62.6 °F - 37.4 °F 39% 29.79 in 10.0 mi WNW 15.0 mph - N/A   Mostly Cloudy
5:15 PM 60.8 °F - 37.4 °F 42% 29.80 in 10.0 mi WNW 13.8 mph 26.5 mph N/A   Mostly Cloudy
5:35 PM 60.8 °F - 35.6 °F 39% 29.81 in 10.0 mi NW 15.0 mph 25.3 mph N/A   Partly Cloudy
5:55 PM 59.0 °F - 37.4 °F 45% 29.82 in 10.0 mi NW 10.4 mph 19.6 mph N/A   Clear
6:15 PM 57.2 °F - 37.4 °F 48% 29.84 in 10.0 mi NNW 13.8 mph 21.9 mph N/A   Clear
6:35 PM 55.4 °F - 37.4 °F 51% 29.85 in 10.0 mi NW 9.2 mph 19.6 mph N/A   Clear
6:55 PM 53.6 °F - 37.4 °F 54% 29.87 in 10.0 mi NNW 15.0 mph 23.0 mph N/A   Clear
7:15 PM 53.6 °F - 39.2 °F 58% 29.87 in 10.0 mi NNW 12.7 mph 19.6 mph N/A   Clear
7:35 PM 51.8 °F - 37.4 °F 58% 29.88 in 10.0 mi NNW 10.4 mph - N/A   Clear
7:55 PM 50.0 °F - 39.2 °F 66% 29.89 in 10.0 mi NNW 8.1 mph - N/A   Clear
8:15 PM 50.0 °F - 39.2 °F 66% 29.90 in 10.0 mi NNW 6.9 mph - N/A   Clear
8:35 PM 48.2 °F - 39.2 °F 71% 29.91 in 10.0 mi NNW 8.1 mph - N/A   Clear
8:55 PM 46.4 °F 42.4 °F 39.2 °F 76% 29.92 in 10.0 mi NW 8.1 mph - N/A   Clear
9:15 PM 48.2 °F - 39.2 °F 71% 29.93 in 10.0 mi NNW 12.7 mph 19.6 mph N/A   Clear
9:35 PM 46.4 °F 41.5 °F 39.2 °F 76% 29.95 in 10.0 mi NW 10.4 mph - N/A   Scattered Clouds
9:55 PM 46.4 °F 40.4 °F 37.4 °F 71% 29.95 in 10.0 mi NNW 13.8 mph - N/A   Mostly Cloudy
10:15 PM 46.4 °F 40.7 °F 35.6 °F 66% 29.96 in 10.0 mi NNW 12.7 mph 19.6 mph N/A   Scattered Clouds
10:35 PM 44.6 °F 38.4 °F 35.6 °F 71% 29.98 in 10.0 mi NNW 12.7 mph 26.5 mph N/A   Clear
10:55 PM 42.8 °F 36.2 °F 35.6 °F 76% 29.99 in 10.0 mi NNW 12.7 mph 20.7 mph N/A   Partly Cloudy
11:15 PM 42.8 °F 37.5 °F 35.6 °F 76% 30.00 in 10.0 mi NNW 9.2 mph - N/A   Partly Cloudy
11:35 PM 41.0 °F 34.3 °F 35.6 °F 81% 30.00 in 10.0 mi NNW 11.5 mph 17.3 mph N/A   Partly Cloudy
11:55 PM 42.8 °F 36.6 °F 35.6 °F 76% 30.00 in 10.0 mi NNW 11.5 mph 18.4 mph N/A   Mostly Cloudy